Regional Weather Roundup
Issued by NWS

Home | Current Version | Previous Version | Text Only | Print | Product List | Glossary On
Versions: 1 2 3 4 5 6 7 8 9 10 11 12 13 14 15 16 17 18 19 20 21 22 23 24 25 26 27 28 29 30 31 32 33 34 35 36 37 38 39 40 41 42 43 44 45 46 47 48 49 50
454
ASUS44 KLIX 210301
RWRLA
LOUISIANA WEATHER ROUNDUP
NATIONAL WEATHER SERVICE NEW ORLEANS LA
1000 PM CDT MON OCT 20 2014

NOTE: "FAIR" INDICATES FEW OR NO CLOUDS BELOW 12,000 FEET WITH NO
      SIGNIFICANT WEATHER AND/OR OBSTRUCTIONS TO VISIBILITY.
      SKY/WX - SKY CONDITION AND SIGNIFICANT WEATHER.
      TMP - AIR TEMPERATURE.    DP   - DEWPOINT TEMPERATURE.
      RH  - RELATIVE HUMIDITY.  PRES - PRESSURE.
      HX  - HEAT INDEX.         WCI  - WIND CHILL INDEX.

*  THESE STATIONS ARE NOT NWS OR FAA STATIONS AND ARE NOT UNDER
   NWS QUALITY CONTROL.

LAZ040-048-061>063-065-066-069-210400-
SOUTHEAST LOUISIANA

CITY           SKY/WX    TMP DP  RH WIND       PRES   REMARKS
N.O. AUDUBON   NOT AVBL
N.O. INTL ARPT PTCLDY    66  55  67 N3        30.02R
N.O. LAKEFRONT CLEAR     74  57  55 NE8       30.03R
N.O. DOWNTOWN* FAIR      72  52  49 N3        30.03R
SLIDELL        CLEAR     57  53  86 CALM      30.02R
BATON ROUGE    CLEAR     58  55  90 CALM      30.03S
BOOTHVILLE     CLEAR     71  65  81 NE5       30.01S
BELLE CHASSE   PTCLDY    59  55  87 CALM      30.02R
BOGALUSA*        N/A     55  51  87 CALM      30.05R
NEW ROADS*     FAIR      59  57  92 CALM      30.04R
GONZALES*      FAIR      58  58 100 CALM      30.03R
HAMMOND*       NOT AVBL
HOUMA*         CLEAR     60  56  87 CALM      30.02R
PORT FOURCHON* CLEAR     72  61  68 E7        30.05R

$$

LAZ041-044-053-054-210400-
SOUTHWEST LOUISIANA

CITY           SKY/WX    TMP DP  RH WIND       PRES   REMARKS
LAKE CHARLES   CLEAR     64  56  75 NE3       30.03R
LAFAYETTE      CLEAR     62  56  80 CALM      30.03R
PATTERSON      NOT AVBL
SALT POINT       N/A     66  59  78 CALM      30.01R
NEW IBERIA     CLEAR     65  56  72 N6        30.03R
CHENAULT AIRPK CLEAR     63  57  81 N5        30.04R

$$

LAZ027-028-210400-
CENTRAL LOUISIANA

CITY           SKY/WX    TMP DP  RH WIND       PRES   REMARKS
FORT POLK      CLEAR     58  55  89 CALM      30.05R
ALEXANDRIA INT CLEAR     58  56  93 CALM      30.03R
ALEXANDRIA     CLEAR     57  55  93 CALM      30.05R

$$

LAZ001-002-210400-
NORTHWEST LOUISIANA

CITY           SKY/WX    TMP DP  RH WIND       PRES   REMARKS
SHREVEPORT     CLEAR     61  55  81 SW3       30.05R
BARKSDALE AFB  CLEAR     59  56  88 E1        30.06R
DTN SHREVEPORT CLEAR     60  55  83 CALM      30.06R

$$

LAZ014-016-210400-
NORTHEAST LOUISIANA

CITY           SKY/WX    TMP DP  RH WIND       PRES   REMARKS
MONROE         CLEAR     58  55  90 CALM      30.07R
TALLULAH       CLEAR     53  51  93 CALM      30.06R

$$




USA.gov is the U.S. government's official web portal to all federal, state and local government web resources and services.